Change the Weather History Date:

Tuesday, November 5, 2013

  Actual Average Record
Temperature  
Mean Temperature 60 °F -  
Max Temperature 73 °F 83 °F 94 °F (1980)
Min Temperature 48 °F 52 °F 35 °F (1956)
Degree Days  
Heating Degree Days 4    
Growing Degree Days 10 (Base 50)    
Moisture  
Dew Point 30 °F    
Average Humidity 37    
Maximum Humidity 69    
Minimum Humidity 13    
Precipitation  
Precipitation 0.00 in - - ()
Sea Level Pressure  
Sea Level Pressure 30.06 in    
Wind  
Wind Speed 7 mph (NW)    
Max Wind Speed 18 mph    
Max Gust Speed 23 mph    
Visibility 10 miles    
Events      
Averages and records for this station are not official NWS values.
T = Trace of Precipitation, MM = Missing Value Source: NWS Daily Summary

Daily Weather History Graph

Daily Weather History Graph

Search for Another Location

Airport or City:

Trip Planner

Search our weather history database for the weather conditions in past years. The results will help you decide how hot, cold, wet, or windy it might be!

Date:

Astronomy

Nov. 05, 2013 Rise Set
Actual Time 6:03 AM PST 4:47 PM PST
Civil Twilight 5:38 AM PST 5:13 PM PST
Nautical Twilight 5:08 AM PST 5:42 PM PST
Astronomical Twilight 4:39 AM PST 6:11 PM PST
Moon 8:18 AM PST (11/5) 6:57 PM PST (11/5)
Length of Visible Light 11h 35m
Length of Day
10h 43m
Waxing Crescent, 7% of the Moon is Illuminated
Nov 5
Waxing Crescent
Nov 9
First Quarter
Nov 17
Full
Nov 25
Last Quarter
Dec 2
New

Hourly Weather History & Observations

Time (PST) Temp. Dew Point Humidity Pressure Visibility Wind Dir Wind Speed Gust Speed Precip Events Conditions
12:53 AM 52.0 °F 39.0 °F 61% 29.87 in 10.0 mi WNW 3.5 mph - N/A   Clear
1:53 AM 55.0 °F 41.0 °F 59% 29.89 in 10.0 mi East 3.5 mph - N/A   Clear
2:53 AM 53.1 °F 43.0 °F 69% 29.91 in 10.0 mi NNW 4.6 mph - N/A   Clear
3:53 AM 51.1 °F 39.9 °F 66% 29.94 in 10.0 mi North 6.9 mph - N/A   Clear
4:53 AM 57.9 °F 32.0 °F 37% 29.97 in 10.0 mi Variable 4.6 mph - N/A   Clear
5:53 AM 50.0 °F 36.0 °F 59% 30.00 in 10.0 mi North 3.5 mph - N/A   Clear
6:53 AM 52.0 °F 37.0 °F 57% 30.04 in 10.0 mi WSW 4.6 mph - N/A   Clear
7:53 AM 63.0 °F 35.1 °F 35% 30.07 in 10.0 mi North 8.1 mph - N/A   Clear
8:53 AM 69.1 °F 33.1 °F 26% 30.09 in 10.0 mi North 11.5 mph - N/A   Clear
9:53 AM 71.1 °F 28.0 °F 20% 30.10 in 10.0 mi North 16.1 mph - N/A   Clear
10:53 AM 72.0 °F 21.9 °F 15% 30.09 in 10.0 mi NNW 18.4 mph - N/A   Clear
11:53 AM 73.0 °F 24.1 °F 16% 30.08 in 10.0 mi NNW 17.3 mph - N/A   Clear
12:53 PM 73.0 °F 23.0 °F 15% 30.07 in 10.0 mi NNW 16.1 mph 23.0 mph N/A   Clear
1:53 PM 73.9 °F 19.9 °F 13% 30.06 in 10.0 mi NNW 11.5 mph - N/A   Clear
2:53 PM 73.9 °F 23.0 °F 15% 30.07 in 10.0 mi NW 13.8 mph - N/A   Clear
3:53 PM 73.0 °F 19.0 °F 13% 30.08 in 10.0 mi NNW 9.2 mph - N/A   Clear
4:53 PM 68.0 °F 28.9 °F 23% 30.08 in 10.0 mi NW 4.6 mph - N/A   Clear
5:53 PM 62.1 °F 30.0 °F 30% 30.10 in 10.0 mi NW 3.5 mph - N/A   Clear
6:53 PM 57.9 °F 28.0 °F 32% 30.12 in 10.0 mi West 4.6 mph - N/A   Clear
7:53 PM 54.0 °F 30.0 °F 40% 30.14 in 10.0 mi WNW 3.5 mph - N/A   Clear
8:53 PM 51.1 °F 30.0 °F 44% 30.15 in 10.0 mi WSW 3.5 mph - N/A   Clear
9:53 PM 48.9 °F 28.9 °F 46% 30.16 in 10.0 mi West 8.1 mph - N/A   Clear
10:53 PM 50.0 °F 27.0 °F 41% 30.17 in 10.0 mi Calm Calm - N/A   Clear
11:53 PM 48.0 °F 28.0 °F 46% 30.17 in 10.0 mi WSW 5.8 mph - N/A   Clear